Mobile Downtown, AL

11:02 AM CDT on May 23, 2017 (GMT -0500)
Mobile Downtown

Weather History for KBFM - December, 2013

Change the Weather History Date:

Thursday, December 12, 2013

  Actual Average Record
Temperature  
Mean Temperature 46 °F -  
Max Temperature 55 °F 60 °F 80 °F (2016)
Min Temperature 37 °F 42 °F 34 °F (2008)
Degree Days  
Heating Degree Days 19    
Moisture  
Dew Point 29 °F    
Average Humidity 51    
Maximum Humidity 70    
Minimum Humidity 26    
Precipitation  
Precipitation 0.00 in - - ()
Sea Level Pressure  
Sea Level Pressure 30.44 in    
Wind  
Wind Speed 11 mph (North)    
Max Wind Speed 18 mph    
Max Gust Speed 23 mph    
Visibility 10 miles    
Events      
Averages and records for this station are not official NWS values.
T = Trace of Precipitation, MM = Missing Value Source: NWS Daily Summary

Daily Weather History Graph

Daily Weather History Graph

Search for Another Location

Airport or City:

Trip Planner

Search our weather history database for the weather conditions in past years. The results will help you decide how hot, cold, wet, or windy it might be!

Date:

Astronomy

Dec. 12, 2013 Rise Set
Actual Time 6:40 AM CST 4:52 PM CST
Civil Twilight 6:13 AM CST 5:18 PM CST
Nautical Twilight 5:43 AM CST 5:48 PM CST
Astronomical Twilight 5:14 AM CST 6:17 PM CST
Moon 1:46 PM CST (12/12) 2:16 AM CST (12/12)
Length of Visible Light 11h 04m
Length of Day
10h 11m
Waxing Gibbous, 80% of the Moon is Illuminated
Dec 12
Waxing Gibbous
Dec 17
Full
Dec 25
Last Quarter
Jan 1
New
Jan 7
First Quarter

Hourly Weather History & Observations

Time (CST) Temp. Windchill Dew Point Humidity Pressure Visibility Wind Dir Wind Speed Gust Speed Precip Events Conditions
12:53 AM 51.1 °F - 35.1 °F 54% 30.41 in 10.0 mi North 10.4 mph - N/A   Overcast
1:53 AM 51.1 °F - 34.0 °F 52% 30.41 in 10.0 mi North 9.2 mph - N/A   Overcast
2:53 AM 50.0 °F - 33.1 °F 52% 30.41 in 10.0 mi North 10.4 mph - N/A   Overcast
3:18 AM 48.9 °F - 33.1 °F 54% 30.42 in 10.0 mi North 10.4 mph - N/A   Overcast
3:53 AM 48.0 °F - 32.0 °F 54% 30.43 in 10.0 mi North 13.8 mph - N/A   Mostly Cloudy
4:53 AM 44.1 °F 38.6 °F 30.9 °F 60% 30.45 in 10.0 mi North 10.4 mph - N/A   Clear
5:53 AM 42.1 °F 36.6 °F 30.9 °F 65% 30.46 in 10.0 mi North 9.2 mph - N/A   Clear
6:53 AM 39.9 °F 33.4 °F 30.9 °F 70% 30.48 in 10.0 mi North 10.4 mph - N/A   Clear
7:53 AM 42.1 °F 36.1 °F 30.9 °F 65% 30.50 in 10.0 mi North 10.4 mph - N/A   Clear
8:53 AM 45.0 °F 38.5 °F 30.9 °F 58% 30.52 in 10.0 mi North 13.8 mph 19.6 mph N/A   Clear
9:53 AM 46.9 °F - 28.9 °F 50% 30.51 in 10.0 mi North 18.4 mph 23.0 mph N/A   Clear
10:53 AM 50.0 °F - 28.9 °F 44% 30.50 in 10.0 mi North 15.0 mph - N/A   Clear
11:53 AM 52.0 °F - 27.0 °F 38% 30.46 in 10.0 mi NNE 16.1 mph 21.9 mph N/A   Clear
12:53 PM 55.0 °F - 26.1 °F 33% 30.43 in 10.0 mi North 12.7 mph 20.7 mph N/A   Clear
1:53 PM 55.9 °F - 26.1 °F 32% 30.41 in 10.0 mi North 12.7 mph - N/A   Clear
2:53 PM 55.9 °F - 21.0 °F 26% 30.40 in 10.0 mi North 12.7 mph 19.6 mph N/A   Clear
3:53 PM 54.0 °F - 24.1 °F 31% 30.40 in 10.0 mi North 13.8 mph - N/A   Clear
4:53 PM 50.0 °F - 24.1 °F 36% 30.41 in 10.0 mi North 11.5 mph - N/A   Clear
5:53 PM 46.0 °F 41.4 °F 25.0 °F 44% 30.41 in 10.0 mi North 9.2 mph - N/A   Clear
6:53 PM 44.1 °F 39.0 °F 27.0 °F 51% 30.43 in 10.0 mi North 9.2 mph - N/A   Clear
7:53 PM 39.9 °F 35.1 °F 27.0 °F 60% 30.43 in 10.0 mi North 6.9 mph - N/A   Clear
8:53 PM 37.9 °F 32.7 °F 28.0 °F 68% 30.43 in 10.0 mi North 6.9 mph - N/A   Clear
9:53 PM 43.0 °F 38.2 °F 28.0 °F 56% 30.42 in 10.0 mi NNE 8.1 mph - N/A   Clear
10:53 PM 43.0 °F 36.8 °F 27.0 °F 53% 30.40 in 10.0 mi North 11.5 mph - N/A   Clear
11:53 PM 41.0 °F 35.2 °F 27.0 °F 57% 30.40 in 10.0 mi North 9.2 mph - N/A   Clear